Hourly Data Report for February 11, 2017

All times are specified in Local Standard Time (LST). Add 1 hour to adjust for Daylight Saving Time where and when it is observed.

COLVILLE LAKE
NORTHWEST TERRITORIES

67°01'17.040" N
126°07'23.070" W
271.00 m
2200824
71055
WFX

Download Data

Hourly Data (February 2017)
Hourly Data Report for February 11, 2017
Temp Definition
°C
Dew Point Temp Definition
°C
Rel Hum Definition
%
Wind Dir Definition
10's deg

Wind Spd Definition
km/h
Visibility Definition
km
Stn Press Definition
kPa
Hmdx Definition


Wind Chill Definition


Weather Definition


TIME
00:00 -39.8 -44.6 60 6 3   97.04   -44 LegendNANA
01:00 -39.7 -44.3 62 3 5   97.04   -47 LegendNANA
02:00 -39.8 -44.6 60 7 2   96.99   -43 LegendNANA
03:00 -39.8 -44.7 60 0 1   96.97   -41 LegendNANA
04:00 -39.8 -44.6 60 5 4   96.92   -45 LegendNANA
05:00 -39.8 -44.6 60 4 4   96.90   -45 LegendNANA
06:00 -39.8 -44.7 59 2 3   96.89   -44 LegendNANA
07:00 -39.8 -44.8 59 5 3   96.89   -44 LegendNANA
08:00 -39.8 -44.8 59 0 1   96.85   -41 LegendNANA
09:00 -39.8 -44.9 59 36 2   96.85   -43 LegendNANA
10:00 -39.8 -44.9 58 2 2   96.83   -43 LegendNANA
11:00 -39.8 -45.0 58 35 1   96.83   -41 LegendNANA
12:00 -39.8 -44.7 59 5 3   96.87   -44 LegendNANA
13:00 -37.8 -42.3 63   0   96.88     LegendNANA
14:00 -38.5 -43.1 62 35 2   96.84   -41 LegendNANA
15:00 -39.8 -44.6 60 3 5   96.83   -47 LegendNANA
16:00 -39.8 -44.5 61 1 4   96.80   -45 LegendNANA
17:00 -39.8 -44.6 60 4 2   96.78   -43 LegendNANA
18:00 -39.8 -44.6 60 3 1   96.74   -41 LegendNANA
19:00 -38.5 -42.9 64 2 3   96.66   -43 LegendNANA
20:00 -38.7 -43.1 63 2 4   96.61   -44 LegendNANA
21:00 -39.2 -43.7 62 35 4   96.56   -45 LegendNANA
22:00 -35.9 -39.9 67 2 6   96.47   -43 LegendNANA
23:00 -34.7 -38.8 66 2 5   96.40   -41 LegendNANA

Notes on Data Quality.

Legend

  • E = Estimated
  • M = Missing
  • NA = Not Available
  • ‡ = Partner data that is not subject to review by the National Climate Archives
Date modified: